Home > Weather > Höxter > Past weeks

Flag for Germany Weather for the Past 2 Weeks in Höxter, North Rhine-Westphalia, Germany

Now
28 °F

Clear.


Feels Like: 21 °F
Forecast: 35 / 41 °F
Wind: 7 mph from Southeast

Location: Paderborn / Lippstadt

Current Time: Feb 13, 2016 at 2:40:42 AM

Latest Report: Feb 13, 2016 at 1:50 AM


Visibility: 10 mi

Pressure: 29.42 "Hg

Humidity: 86%

Dew point: 25 °F

Location of HöxterLocation

Historic Weather in Höxter — Graph

°F

Höxter Temperature Yesterday

Maximum temperature yesterday: 41 °F (at 12:50 PM)
Minimum temperature yesterday: 30 °F (at 8:50 PM)
Average temperature yesterday: 35 °F

High & Low Weather Summary for the Past Weeks

 TemperatureHumidityPressure
High52 °F (Feb 6, 11:50 AM)100% (Jan 30, 8:50 PM)30.27 "Hg (Jan 30, 8:50 PM)
Low28 °F (Feb 13, 12:50 AM)53% (Feb 3, 3:20 PM)28.82 "Hg (Feb 9, 5:50 PM)
Average41 °F80%29.75 "Hg
* Reported Jan 29 1:50 AM — Feb 13 1:20 AM, Höxter, Weather by CustomWeather, © 2016

Note: Actual official high and low records may vary slightly from our data, if they occured in-between our weather recording intervals... More about our weather records

Advertising

Höxter Weather History for the Previous 24 Hours

 ConditionsComfort  
Time TempWeatherWind HumidityBarometerVisibility
1:20 AM
Sat, Feb 13
30 °FClear.6 mph86%29.42 "Hg10 mi
12:50 AM28 °FClear.6 mph86%29.42 "Hg10 mi
11:50 PM
Fri, Feb 12
30 °FClear.6 mph86%29.42 "Hg10 mi
11:20 PM30 °FClear.6 mph86%29.45 "Hg10 mi
10:20 PM32 °FClear.5 mph80%29.45 "Hg10 mi
9:50 PM30 °FClear.6 mph80%29.45 "Hg10 mi
9:20 PM30 °FClear.5 mph86%29.45 "Hg10 mi
8:50 PM30 °FClear.5 mph80%29.45 "Hg10 mi
8:20 PM32 °FClear.5 mph80%29.45 "Hg10 mi
7:50 PM32 °FClear.5 mph80%29.45 "Hg10 mi
7:20 PM32 °FPassing clouds.5 mph75%29.45 "HgN/A
6:50 PM34 °FPassing clouds.3 mph70%29.45 "HgN/A
6:20 PM34 °FClear.5 mph70%29.45 "Hg10 mi
5:50 PM34 °FPassing clouds.6 mph70%29.45 "HgN/A
5:20 PM37 °FSunny.3 mph60%29.47 "Hg10 mi
4:50 PM37 °FPassing clouds.3 mph65%29.47 "HgN/A
4:20 PM39 °FScattered clouds.8 mph56%29.47 "HgN/A
3:50 PM39 °FScattered clouds.7 mph56%29.47 "HgN/A
3:20 PM37 °FScattered clouds.10 mph65%29.47 "HgN/A
2:50 PM39 °FScattered clouds.9 mph61%29.47 "HgN/A
2:20 PM39 °FScattered clouds.10 mph61%29.50 "HgN/A
1:50 PM41 °FScattered clouds.8 mph61%29.50 "HgN/A
1:20 PM41 °FScattered clouds.5 mph61%29.50 "HgN/A
12:50 PM41 °FPassing clouds.5 mph57%29.53 "HgN/A
12:20 PM39 °FPassing clouds.3 mph65%29.53 "HgN/A
11:50 AM39 °FPassing clouds.6 mph65%29.56 "HgN/A
11:20 AM37 °FScattered clouds.7 mph70%29.56 "HgN/A
10:50 AM36 °FPartly sunny.5 mph81%29.59 "HgN/A
10:20 AM36 °FPartly sunny.5 mph81%29.59 "HgN/A
9:50 AM36 °FScattered clouds.3 mph81%29.59 "HgN/A
9:20 AM36 °FScattered clouds.5 mph81%29.59 "HgN/A
8:50 AM36 °FBroken clouds.3 mph81%29.59 "HgN/A
8:20 AM36 °FBroken clouds.6 mph81%29.59 "HgN/A
7:50 AM34 °FBroken clouds.6 mph87%29.59 "HgN/A
7:20 AM36 °FPassing clouds.6 mph81%29.59 "HgN/A
6:50 AM36 °FPassing clouds.5 mph81%29.62 "HgN/A
6:20 AM36 °FPassing clouds.7 mph81%29.62 "HgN/A
5:50 AM36 °FPassing clouds.7 mph81%29.62 "HgN/A
4:50 AM36 °FPartly cloudy.7 mph81%29.62 "HgN/A
4:20 AM34 °FPassing clouds.10 mph87%29.65 "HgN/A
3:50 AM36 °FPassing clouds.7 mph81%29.65 "HgN/A
3:20 AM36 °FPassing clouds.8 mph87%29.65 "HgN/A
2:50 AM34 °FPassing clouds.8 mph87%29.65 "HgN/A
2:20 AM34 °FPassing clouds.9 mph87%29.65 "HgN/A
Weather by CustomWeather, © 2016

See weather overviewHow to use our weather pages